COSMOS 2491 DEB, 57561

Orbit data source: Space-Track

COSMOS 2491 DEB, 57561 is space debris in LEO originally from a launch on Wed, 25 Dec 2013 UTC launched from the Plesetsk Missile And Space Complex (PKMTR). Debris objects in space refer to the collection of defunct objects orbiting the Earth. Examples of debris include non-operational satellites, rocket bodies, and fragments generated from explosions, collisions, or faulty payload assembly.

Loading next visibility...
Identifier
57561, 2013-076AY
Orbit
LEO
Country
Flag of CISCIS
Related business
Manufacturer
TsNIIKhM
Mission
Spacecraft
Bus & Motor
Unknown
Mass
Unknown
Launch date (UTC)
2013-12-25 (12 years ago)
Launch vehicle
Unknown
Launch site
Plesetsk Missile And Space Complex (PKMTR)
Object type
Payload
Rocket body
Debris
Shape & HBR
Unknown shape, 0.1 m
Radar Cross Section
Small (<0.1 m²)

Expand to show TLE details & history
Last TLE update: 6 months ago

TLE from 6 months ago
0 COSMOS 2491 DEB
1 57561U 13076AY  25323.05833086  .00002421  00000-0  11206-1 0  9999
2 57561  82.7444 251.8404 0147034 335.1037  24.3015 12.72731643117606
Epoch: 2025-11-19T01:23Z
TLE epoch observation values (Epoch: 2025-11-19T01:23:59.786Z)
Latitude
-0.00006°
Longitude
172.50577°
Altitude
1,270.013 km
Speed
7.269 km/s
True Right ascension
16h 47m 21s
True Declination
0° 00' 00"
Sunlit
Object was in daylight at epoch
Visualization orbit readout
Latitude
Unknown
Longitude
Unknown
Altitude
Unknown
Speed
Unknown
Apparent Right ascension
Unknown
Apparent Declination
Unknown
Sunlit
N/A
Visualization observer readout
Local Sidereal Time
17:13:51
Azimuth
Unknown
Elevation
Unknown
Doppler factor
Unknown
Orbital elements
Apogee altitude
1,482.028 km
Perigee altitude
1,254.235 km
Semi-major axis
7,746.268 km
Eccentricity
0.0147
Inclination
82.7444°
RAAN
251.8404°
Arg. of periapsis
335.1037°
True anomaly
25.00668°
Mean anomaly
24.3015°
Eccentric anomaly
24.6529°
Mean motion
3.1835 °/min
Orbital period
113.08 mins
BSTAR
0.011206
Loading maneuver chart data...
Computing Atmospheric mass density...
Loading historical data...
Loading historical data...
Loading historical data...
Loading historical data...
Loading historical data...
Loading historical data...
Loading historical data...

Documentation

Showing up to 5 results
|